Location: Carrières
(48.9495°N, 2.0407°E)
Time: 00:50:06
(UTC+00:00)

Meteor 2-17 Rocket - Pass Details

Date: 28 January 2023
Orbit: 935 x 956 km, 82.5° (Epoch: 21 March)

Event Time Altitude Azimuth Distance (km) Brightness Sun altitude
Rises 17:45:08 0° 350° (N) 3,643 7.4 -10.4°
Reaches altitude 10° 17:47:38 10° 352° (N) 2,696 6.8 -10.8°
Maximum altitude 17:53:50 79° 79° (E) 979 4.4 -11.8°
Drops below altitude 10° 17:59:59 10° 167° (SSE) 2,680 6.8 -12.8°
Sets 18:02:28 0° 169° (SSE) 3,621 7.5 -13.2°
